Web Analytics Made Easy - StatCounter

Jackpot

Texas Poker Multi Jackpot System

Kini Telah hadir Jackpot SUPER ROYAL FLUSH

Kini Telah hadir Jackpot 2000 (khusus table VIP keatas).

Ikutilah global jackpot yang tersedia di system kami, dengan system jackpot terbaru dan pertama di indonesia, anda dapat membeli jackpot dengan harga 100 rupiah saja dan menangkan hadiahnya hingga puluhan juta rupiah.

Jackpot bukanlah suatu keharusan untuk dibeli, namun kami memberikan suatu fitur tambahan untuk member tercinta dari www.venuspoker.com.

Terdapat tiga pilihan harga jackpot yang bisa anda beli yaitu :100,500,1000 dan 2000(khusus table VIP Keatas) rupiah.

Hadiah dari Multi jackpot system www.venuspoker.com

  1. full house x 10 harga jackpot yang anda beli.
      (contoh:anda membeli 1000 maka:1000 X10 = 10.000)
  2. four of kind x 250 harga jackpot yang anda beli
      (contoh:anda membeli 1000 maka:1000 X250 = 250.000)
  3. Straight flush x 1200
      (contoh:anda membeli 1000 maka:1000 X1200 = 1.200.000)
  4. Royal flush x 10000 harga jackpot yang anda beli
      (contoh:anda membeli 1000 maka:1000 X10000 = 10.000.000)
  5. SUPER ROYAL FLUSH x 30000 harga jackpot yang anda beli
      (contoh:anda membeli 1000 maka:1000 X30000 = 30.000.000)

Kondisi kartu

  1. full house adalah kondisi kartu dimana kartu anda dan kartu tengah dengan total 7 kartu bisa mendapatkan nilai 5 kartu dengan kombinasi 1 tris(three of kind) dan 1 pair, contoh 3 kartu 10 dan 2 kartu 5
  2. Four of kind adalah kondisi kartu dimana kartu anda dan kartu tengah dengan total 7 kartu bisa mendapatkan nilai 5 kartu dengan kombinasi 4 kartu yang sama jumlah dan 1 kartu apapun juga contoh anda mendapatkan 4 buah kartu angka 3 dan 1 kartu apapun.
  3. Staright flush adalah kondisi kartu dimana kartu anda dan kartu tengah dengan total 7 kartu bisa mendapatkan nilai 5 kartu dengan kombinasi seri / staright dengan kembang yang sama contoh : urutan kartu dari angka 5, 6, 7, 8 , 9 10 dengan kembang yg sama misalnya as hati
  4. Royal flush adalah kondisi kartu dimana kartu anda dan kartu tengah dengan total 7 kartu bisa mendapatkan nilai 5 kartu dengan kombinasi seri / staright dengan kembang yang sama tetapi kartu tersebut haruslah dimulai dari 10. contoh 10, Queen, Jack, King dan aces dengan kembang yang sama
  5. Super Royal flush adalah kondisi kartu dimana Kedua kartu anda digabung dengan 3 kartu pertama meja haruslah royal flush. contoh kartu anda 10,Queen kembang sama dan 3 kartu pertama meja adalah Jack, King dan aces dengan kembang yang sama

Demikian adalah penjelasan dari Multi Jackpot www.venuspoker.com terima kasih dan selamat bermain salam hoki dari kami

Texas Poker Jackpot Winner

TOP SUPER ROYAL FLUSH
No.TanggalNamaPriceWin
126/04 04:24RAFAELDRSuper Royal flush15,000,000
226/04 01:53SLEMBE88Super Royal flush3,000,000
325/04 18:46CEPOT5649Super Royal flush30,000,000
425/04 15:41SANS77Super Royal flush15,000,000
525/04 14:53BHEJHESuper Royal flush6,000,000
TOP ROYAL FLUSH
No.TanggalNamaPriceWin
126/04 04:09SONYZ505Royal flush2,000,000
226/04 03:56AHAS475Royal flush2,000,000
326/04 03:53BHILLA555Royal flush5,000,000
426/04 03:46DJ_UNTUNG9Royal flush2,000,000
526/04 03:20YUL1KURoyal flush2,000,000
TOP STRAIGHT FLUSH
No.TanggalNamaPriceWin
126/04 04:28HIM212Straight Flush240,000
226/04 04:25EKA2159Straight Flush2,400,000
326/04 04:23DWBTISS991Straight Flush240,000
426/04 04:20KOB0I123Straight Flush1,200,000
526/04 04:19LAHAP13Straight Flush240,000
LATEST JACKPOT
No.TanggalNamaPriceWin
126/04 04:37YEYENK55Full House5,000
226/04 04:37BUM1DATARFull House10,000
326/04 04:37N4IN4IR1KFull House2,000
426/04 04:37SAHABAT83Full House20,000
526/04 04:37ROHILROHILFull House20,000
626/04 04:37PR8MS291SQFull House1,000
726/04 04:37FVCKUALLFull House10,000
826/04 04:37INDRALAPETFull House1,000
926/04 04:37A4297768Full House10,000
1026/04 04:37BOSMEDFull House10,000
1126/04 04:37KINGBEDULFull House1,000
1226/04 04:37P4TARK7Full House2,000
1326/04 04:37SAROOH12Full House5,000
1426/04 04:37ABAS030Full House2,000
1526/04 04:37FANXFull House5,000
1626/04 04:37SULIT777Full House5,000
1726/04 04:37BOY1705Full House10,000
1826/04 04:37XBF9O7A9J1Full House5,000
1926/04 04:37XM1P7VTYQ2Full House5,000
2026/04 04:37HJ5GSGTZBUFull House1,000
2126/04 04:37KNR0808Full House1,000
2226/04 04:37LOYO_09Full House2,000
2326/04 04:37JACK000Full House5,000
2426/04 04:37SAFETYNRFull House1,000
2526/04 04:37SOEL_87Full House1,000
2626/04 04:37DOANG111Four Of A Kind50,000
2726/04 04:37PLS9KFull House5,000
2826/04 04:37BUJAN71Full House2,000
2926/04 04:37SS3SFull House2,000
3026/04 04:37GUJER999Full House2,000
3126/04 04:37BOLCUMFull House10,000
3226/04 04:37INPURFull House5,000
3326/04 04:36TYRAAAFull House20,000
3426/04 04:36STEMPELFull House20,000
3526/04 04:36TAMSKWFull House5,000
3626/04 04:36TOLKON19Full House1,000
3726/04 04:36JZI4VKHWUEFull House5,000
3826/04 04:36CIRENK45Full House5,000
3926/04 04:36E919447CFull House10,000
4026/04 04:36NOFRIZ4LFull House2,000
4126/04 04:36W4ONE92Four Of A Kind50,000
4226/04 04:36AMBUN87Full House20,000
4326/04 04:36SHABSFull House20,000
4426/04 04:36UBIREBOS23Full House1,000
4526/04 04:36ADMINRYLFour Of A Kind125,000
4626/04 04:36SHODRONE08Full House1,000
4726/04 04:36DK502Full House2,000
4826/04 04:36O7YKSS8XPFFull House2,000
4926/04 04:36D44547C5Full House1,000
5026/04 04:36X6NH58E2GNFull House10,000

Domino Multi Jackpot System

Ikutilah global jackpot yang tersedia di system kami, dengan system jackpot terbaru dan pertama di indonesia, anda dapat membeli jackpot dengan harga 100 rupiah saja dan menangkan hadiahnya hingga puluhan juta rupiah.

Jackpot bukanlah suatu keharusan untuk dibeli, namun kami memberikan suatu fitur tambahan untuk member tercinta dari www.venuspoker.com.

Terdapat tiga pilihan harga jackpot yang bisa anda beli yaitu :100,500 dan 1000 rupiah.

Hadiah dari Multi jackpot system www.venuspoker.com

  1. Murni Kecil x 50 harga jackpot yang anda beli.
      (contoh:anda membeli 1000 maka:1000 X 50 = 50.000)
  2. Murni Besar x 50 harga jackpot yang anda beli
      (contoh:anda membeli 1000 maka:1000 X 50 = 50.000)
  3. BALAK x 100 harga jackpot yang anda beli
      (contoh:anda membeli 1000 maka:1000 X 100 = 100.000)
  4. ENAM DEWA x 6666 harga jackpot yang anda beli
      (contoh:anda membeli 1000 maka:1000 X 6666 = 6.666.000)

Demikian adalah penjelasan dari Multi Jackpot www.venuspoker.com terima kasih dan selamat bermain salam hoki dari kami

Domino Jackpot Winner

TOP ENAM DEWA
No.TanggalNamaPriceWin
126/04 03:09E303A52Fmurni enam666,600
225/04 23:06THETOPmurni enam3,333,000
325/04 21:52DOLY333murni enam666,600
425/04 21:15KOPI34murni enam6,666,000
525/04 18:40STAREVIL66murni enam3,333,000
TOP BALAK
No.TanggalNamaPriceWin
126/04 04:36TOMYFINAbalak10,000
226/04 04:36ALEN43balak100,000
326/04 04:32INEX1315balak100,000
426/04 04:30WK22balak100,000
526/04 04:28ADAD07balak50,000
LATEST JACKPOT
No.TanggalNamaPriceWin
126/04 04:37FUL_86murni kecil5,000
226/04 04:36TOMYFINAbalak10,000
326/04 04:36ALEN43balak100,000
426/04 04:35AIBONK111murni kecil50,000
526/04 04:35OVER2018murni besar25,000
626/04 04:35S5UD33murni besar50,000
726/04 04:32UJUK1234murni kecil5,000
826/04 04:32INEX1315balak100,000
926/04 04:32MINGGU1987murni kecil50,000
1026/04 04:32NIIETHAmurni besar25,000
1126/04 04:31CHODETAJAmurni kecil5,000
1226/04 04:31TC4X6Q3V43murni kecil50,000
1326/04 04:30N6ACENGmurni kecil25,000
1426/04 04:30WK22balak100,000
1526/04 04:30KEBAS39murni besar50,000
1626/04 04:30GBT77murni kecil25,000
1726/04 04:29AIBONK111murni besar50,000
1826/04 04:28TAKIKIS99murni kecil50,000
1926/04 04:28ADAD07balak50,000
2026/04 04:28CHODETAJAmurni kecil5,000
2126/04 04:27KEBAS39murni kecil50,000
2226/04 04:27ENJOY2519lucky992,500
2326/04 04:26MERAH66murni besar5,000
2426/04 04:26HPJADULmurni kecil50,000
2526/04 04:25ALLEP00murni kecil50,000
2626/04 04:25C82FEAC0murni besar25,000
2726/04 04:25OEFON7DQHHmurni kecil50,000
2826/04 04:25CHEMONK8murni besar5,000
2926/04 04:25SERSImurni kecil50,000
3026/04 04:24NFGP0U65JTmurni kecil50,000
3126/04 04:23KODOK8997murni kecil50,000
3226/04 04:23KAJOL9999lucky992,500
3326/04 04:23LANSAM_86murni besar5,000
3426/04 04:23THEBET09balak100,000
3526/04 04:23MEIDYTA88murni kecil50,000
3626/04 04:22DPTTBOBOL21balak10,000
3726/04 04:21IBP88943balak10,000
3826/04 04:19SOEX46murni kecil50,000
3926/04 04:18APUNG95murni kecil50,000
4026/04 04:18AANJAYA1lucky9910,000
4126/04 04:17TOMYFINAmurni besar5,000
4226/04 04:17AMIENSAbalak100,000
4326/04 04:16ASYRAF001murni kecil25,000
4426/04 04:16BUKEK_15lucky9950,000
4526/04 04:13RAN6666balak100,000
4626/04 04:13PUJAY1992murni kecil25,000
4726/04 04:13AGIAPGRACElucky992,500
4826/04 04:12LK4DD3D1murni kecil5,000
4926/04 04:11KEBAS39murni besar50,000
5026/04 04:11HORBO44balak10,000

Ceme Multi Jackpot System

Jackpot dilihat dari gabungan kartu pemain dengan kartu bandar. Bandar harus membeli jackpot sebanyak jumlah player yang sedang duduk. Sebagai contoh bila terdapat 3 pemain duduk bermain, dan bandar memutuskan untuk membeli jackpot Rp 1.000, maka pada periode tersebut bandar akan membeli jackpot sebanyak 3xRp1.000 = Rp3.000.

Jackpot bukanlah suatu keharusan untuk dibeli, namun kami memberikan suatu fitur tambahan untuk member tercinta dari www.venuspoker.com.

Terdapat tiga pilihan harga jackpot yang bisa anda beli yaitu :100,500 dan 1000 rupiah.

Hadiah dari Multi jackpot system www.venuspoker.com

  1. Murni Kecil x 50 harga jackpot yang anda beli.
      (contoh:anda membeli 1000 maka:1000 X 50 = 50.000)
  2. Murni Besar x 50 harga jackpot yang anda beli
      (contoh:anda membeli 1000 maka:1000 X 50 = 50.000)
  3. BALAK x 200 harga jackpot yang anda beli
      (contoh:anda membeli 1000 maka:1000 X 200 = 200.000)
  4. ENAM DEWA x 6666 harga jackpot yang anda beli
      (contoh:anda membeli 1000 maka:1000 X 6666 = 6.666.000)

Demikian adalah penjelasan dari Multi Jackpot www.venuspoker.com terima kasih dan selamat bermain salam hoki dari kami

Ceme Jackpot Winner

TOP ENAM DEWA
No.TanggalNamaPriceWin
126/04 04:21YOIBROW89murni enam6,666,000
226/04 04:21NYAMIK10murni enam666,600
326/04 04:16RATIO90murni enam6,666,000
426/04 04:16A82096B5murni enam6,666,000
526/04 03:59APRILIA292murni enam3,333,000
TOP BALAK
No.TanggalNamaPriceWin
126/04 04:37REL1997balak100,000
226/04 04:36BP885656balak200,000
326/04 04:34GORED1101balak100,000
426/04 04:34JAHIDI12balak100,000
526/04 04:34CEPOYOKEHbalak20,000
LATEST JACKPOT
No.TanggalNamaPriceWin
126/04 04:37TAWANZ5murni besar50,000
226/04 04:37MV556310murni besar50,000
326/04 04:37PPOYmurni besar5,000
426/04 04:37REL1997murni kecil25,000
526/04 04:37REL1997balak100,000
626/04 04:37REL1997murni kecil25,000
726/04 04:37KAKAPENImurni kecil50,000
826/04 04:37ARMEY_LOVEmurni besar50,000
926/04 04:37AMEXLAUmurni besar50,000
1026/04 04:36TAWANZ5murni kecil50,000
1126/04 04:36CHIKAL85murni kecil50,000
1226/04 04:36TAWANZ5murni kecil50,000
1326/04 04:36BP885656balak200,000
1426/04 04:36MISTIQUES2murni kecil25,000
1526/04 04:36CMD79176murni kecil50,000
1626/04 04:36ZAYN_1927murni besar5,000
1726/04 04:36DWBTECK86murni besar5,000
1826/04 04:35GELANDNGANmurni kecil50,000
1926/04 04:35ANDI126murni besar50,000
2026/04 04:35WIDYA2344murni kecil25,000
2126/04 04:35WWT10murni kecil25,000
2226/04 04:35CHAGI04murni besar50,000
2326/04 04:35OJONESUAEmurni besar5,000
2426/04 04:35EF683B48murni kecil5,000
2526/04 04:35CHENDYHOKImurni kecil25,000
2626/04 04:35DEMIT455murni besar50,000
2726/04 04:34GORED1101balak100,000
2826/04 04:34ARMEY_LOVEmurni kecil50,000
2926/04 04:34CIIINZ666murni kecil25,000
3026/04 04:34IPLFIT112murni kecil50,000
3126/04 04:34NANDAWDLGmurni kecil50,000
3226/04 04:34JAHIDI12balak100,000
3326/04 04:34CEPOYOKEHbalak20,000
3426/04 04:34CHENDYHOKImurni besar25,000
3526/04 04:34DC372155balak100,000
3626/04 04:34SINGERUK99murni kecil25,000
3726/04 04:34DWTRIZAL93balak100,000
3826/04 04:34MIKEMOUSEbalak20,000
3926/04 04:34MAS_BRO23murni besar5,000
4026/04 04:33DEPPIAbalak20,000
4126/04 04:33IRZZAD22murni kecil25,000
4226/04 04:33SETANOOObalak200,000
4326/04 04:33CUPETONG77murni kecil5,000
4426/04 04:33RIKI206murni kecil25,000
4526/04 04:33BEN_551balak100,000
4626/04 04:33SULTANCOYmurni kecil5,000
4726/04 04:33DN4DSAUFI10murni kecil5,000
4826/04 04:33SULTANCOYmurni kecil5,000
4926/04 04:33MALAGA70murni kecil25,000
5026/04 04:33BP885656murni kecil50,000